Regional Weather Roundup
Issued by NWS Bismarck, ND

Home | Current Version | Previous Version | Text Only | Print | Product List | Glossary On
Versions: 1 2 3 4 5 6 7 8 9 10 11 12 13 14 15 16 17 18 19 20 21 22 23 24 25 26 27 28 29 30 31 32 33 34 35 36 37 38 39 40 41 42 43 44 45 46 47 48 49 50
000
ASUS43 KBIS 271720
RWRBIS

NWR BROADCAST TEXT
NATIONAL WEATHER SERVICE BISMARCK ND
1100 AM CST THU NOV 27 2014

NOTE: "FAIR" INDICATES FEW OR NO CLOUDS BELOW 12,000 FEET WITH NO
SIGNIFICANT WEATHER AND/OR OBSTRUCTIONS TO VISIBILITY.


CITY           SKY/WX    TMP DP  RH WIND       PRES   REMARKS
WILLISTON      CLOUDY    20  12  71 SE8       30.05F WCI  10
MINOT          PTSUNNY   10   4  76 SE10      30.18F WCI  -4
MINOT AFB      CLOUDY     6   4  90 SE8       30.19F WCI  -7
BISMARCK       CLOUDY     5   1  83 SE9       30.27F WCI  -9
DICKINSON      CLOUDY    18  14  84 SE21G26   30.03F WCI   1
GARRISON         N/A     10   8  92 S12       30.19F WCI  -5
HETTINGER ARPT CLOUDY    17  13  84 SE12      30.07F WCI   4
JAMESTOWN      MOSUNNY   -1  -9  68 S13       30.34F WCI -19
BEACH          CLOUDY    23  19  86 SE16G24   29.97F WCI  10
CARRINGTON     FAIR      -2  -6  84 SE12      30.31S WCI -20
CROSBY         FAIR      18  14  86 E8        30.07F WCI   7
HARVEY         FAIR       1   0  92 S8        30.28S WCI -12
HAZEN          CLOUDY    10   5  79 S15       30.20F WCI  -6
LINTON         PTSUNNY    1   0  92 SE12      30.29S WCI -15
MANDAN         CLOUDY     7   3  85 S10       30.24F WCI  -8
OAKES            N/A     -4  -8  84 SE7       30.40F WCI -18
RUGBY          CLOUDY     0  -2  92 S10       30.27F WCI -17
STANLEY        CLOUDY    12  12 100 SE12      30.09F WCI  -2
TIOGA          CLOUDY    14  14 100 SE15      30.09F WCI  -1
$$

CITY           SKY/WX    TMP DP  RH WIND       PRES   REMARKS
GRAND FORKS    MOSUNNY    1  -5  75 S12       30.46F WCI -16
GRAND FORKS AF SUNNY      2  -6  68 S10       30.44F WCI -14
DEVILS LAKE    SUNNY      3  -9  55 S8        30.30S WCI -10
FARGO          SUNNY      0  -6  76 S5        30.48F WCI -10
CANDO          FAIR       1  -2  85 S12       30.31F WCI -15
CAVALIER       FAIR       1  -4  78 S9        30.41F WCI -14
GRAFTON        FAIR       3  -4  72 S12       30.43F WCI -13
GWINNER        SUNNY      1  -6  71 S8        30.43F WCI -12
LANGDON        FAIR       1  -2  85 S15       30.30F WCI -18
ROLLA          FAIR       0  -2  92 S13       30.25R WCI -18
WALHALLA         N/A      3   0  85 SW7       30.39F WCI  -9
$$

CITY           SKY/WX    TMP DP  RH WIND       PRES   REMARKS
ABERDEEN       SUNNY      2  -6  69 S12       30.42F WCI -15
MOBRIDGE       CLOUDY    10   2  69 SE12      30.24F WCI  -5
BUFFALO          N/A     20  17  88 S22       29.94F WCI   3
RAPID CITY     CLOUDY    21  20  96 SE12      30.07F WCI   9
GLASGOW        CLOUDY    25  22  88 SE22      29.83F WCI  10
SIDNEY         CLOUDY    27  19  74 SE13      30.01F WCI  16
WOLF POINT     LGT SNOW  24  20  84 E12       29.93F VSB 3/4 WCI  13
GLENDIVE       PTSUNNY   27  21  80 S12       29.95F WCI  16
MILES CITY     CLOUDY    30  24  78 S13       29.92R WCI  20
BAKER          CLOUDY    24  20  84 SE17      29.96F WCI  11
$$

CITY           SKY/WX    TMP DP  RH WIND       PRES   REMARKS
BILLINGS       CLOUDY    41  30  65 SW21G28   29.91S
GREAT FALLS    MOSUNNY   49  33  54 SW26G35   29.79R
REGINA         FLURRIES   9   5  85 SE14      30.06F WCI  -8
ESTEVAN        LGT SNOW  10   7  85 E14       30.08F FOG     WCI  -5
$$



USA.gov is the U.S. government's official web portal to all federal, state and local government web resources and services.